Time,TemperatureF,DewpointF,PressureIn,WindDirection,WindDirectionDegrees,WindSpeedMPH,WindSpeedGustMPH,Humidity,HourlyPrecipIn,Conditions,Clouds,dailyrainin,SoftwareType,DateUTC
2013-02-04 00:00:00,27.5,22.5,29.88,WNW,283,4.0,8.0,81,0.00,,,0.00,meteohub,2013-02-04 05:00:00,
2013-02-04 00:01:00,27.7,22.6,29.88,WNW,288,4.0,8.0,81,0.00,,,0.00,meteohub,2013-02-04 05:01:00,
2013-02-04 00:06:00,28.0,23.0,29.88,WNW,300,6.0,12.0,81,0.00,,,0.00,meteohub,2013-02-04 05:06:00,
2013-02-04 00:11:00,28.0,23.0,29.88,West,274,7.0,12.0,81,0.00,,,0.00,meteohub,2013-02-04 05:11:00,
2013-02-04 00:16:00,28.2,22.8,29.88,WNW,298,9.0,12.0,80,0.00,,,0.00,meteohub,2013-02-04 05:16:00,
2013-02-04 00:21:00,28.6,22.8,29.88,West,274,8.0,15.0,79,0.00,,,0.00,meteohub,2013-02-04 05:21:00,
2013-02-04 00:26:00,28.6,22.8,29.88,NW,308,13.0,19.0,79,0.00,,,0.00,meteohub,2013-02-04 05:26:00,
2013-02-04 00:31:00,28.4,22.5,29.88,WNW,294,8.0,19.0,78,0.00,,,0.00,meteohub,2013-02-04 05:31:00,
2013-02-04 00:36:00,28.2,22.3,29.88,NW,307,5.0,19.0,78,0.00,,,0.00,meteohub,2013-02-04 05:36:00,
2013-02-04 00:41:00,28.0,22.1,29.88,NW,315,11.0,16.0,78,0.00,,,0.00,meteohub,2013-02-04 05:41:00,
2013-02-04 00:46:00,28.0,22.1,29.88,NW,323,6.0,16.0,78,0.00,,,0.00,meteohub,2013-02-04 05:46:00,
2013-02-04 00:51:00,27.9,21.6,29.89,West,274,12.0,13.0,77,0.00,,,0.00,meteohub,2013-02-04 05:51:00,
2013-02-04 00:56:00,27.9,21.0,29.89,WNW,291,5.0,14.0,75,0.00,,,0.00,meteohub,2013-02-04 05:56:00,
2013-02-04 01:01:00,27.9,20.3,29.89,NW,316,10.0,16.0,73,0.00,,,0.00,meteohub,2013-02-04 06:01:00,
2013-02-04 01:06:00,27.9,19.9,29.89,WNW,288,6.0,16.0,72,0.00,,,0.00,meteohub,2013-02-04 06:06:00,
2013-02-04 01:11:00,27.9,19.8,29.89,WNW,285,8.0,16.0,71,0.00,,,0.00,meteohub,2013-02-04 06:11:00,
2013-02-04 01:16:00,27.9,19.4,29.89,NW,304,13.0,15.0,70,0.00,,,0.00,meteohub,2013-02-04 06:16:00,
2013-02-04 01:21:00,27.7,18.9,29.89,WNW,284,10.0,19.0,69,0.00,,,0.00,meteohub,2013-02-04 06:21:00,
2013-02-04 01:26:00,27.7,18.5,29.90,West,274,11.0,19.0,68,0.00,,,0.00,meteohub,2013-02-04 06:26:00,
2013-02-04 01:31:00,27.7,18.5,29.90,NW,312,8.0,19.0,68,0.00,,,0.00,meteohub,2013-02-04 06:31:00,
2013-02-04 01:36:00,27.5,18.3,29.90,WNW,284,9.0,17.0,68,0.00,,,0.00,meteohub,2013-02-04 06:36:00,
2013-02-04 01:41:00,27.3,18.5,29.90,NW,309,7.0,17.0,69,0.00,,,0.00,meteohub,2013-02-04 06:41:00,
2013-02-04 01:46:00,27.1,18.3,29.90,WNW,300,5.0,16.0,69,0.00,,,0.00,meteohub,2013-02-04 06:46:00,
2013-02-04 01:51:00,27.1,18.3,29.90,NW,304,4.0,20.0,69,0.00,,,0.00,meteohub,2013-02-04 06:51:00,
2013-02-04 01:56:00,27.0,18.1,29.90,NW,311,9.0,20.0,69,0.00,,,0.00,meteohub,2013-02-04 06:56:00,
2013-02-04 02:02:00,27.0,18.1,29.91,NW,326,7.0,26.0,69,0.00,,,0.00,meteohub,2013-02-04 07:02:00,
2013-02-04 02:07:00,26.8,18.0,29.91,NNW,333,6.0,26.0,69,0.00,,,0.00,meteohub,2013-02-04 07:07:00,
2013-02-04 02:12:00,26.6,17.8,29.91,WNW,301,12.0,26.0,69,0.00,,,0.00,meteohub,2013-02-04 07:12:00,
2013-02-04 02:17:00,26.4,18.0,29.91,NW,304,9.0,17.0,70,0.00,,,0.00,meteohub,2013-02-04 07:17:00,
2013-02-04 02:22:00,26.4,18.0,29.91,WNW,290,12.0,17.0,70,0.00,,,0.00,meteohub,2013-02-04 07:22:00,
2013-02-04 02:26:00,26.2,17.8,29.91,WNW,292,6.0,18.0,70,0.00,,,0.00,meteohub,2013-02-04 07:26:00,
2013-02-04 02:32:00,26.2,18.1,29.92,NW,317,17.0,18.0,71,0.00,,,0.00,meteohub,2013-02-04 07:32:00,
2013-02-04 02:37:00,26.2,17.8,29.92,WNW,291,10.0,20.0,70,0.00,,,0.00,meteohub,2013-02-04 07:37:00,
2013-02-04 02:42:00,26.2,18.1,29.92,WNW,290,10.0,20.0,71,0.00,,,0.00,meteohub,2013-02-04 07:42:00,
2013-02-04 02:47:00,26.1,18.0,29.92,WSW,243,9.0,20.0,71,0.00,,,0.00,meteohub,2013-02-04 07:47:00,
2013-02-04 02:52:00,26.1,17.6,29.92,West,281,10.0,18.0,70,0.00,,,0.00,meteohub,2013-02-04 07:52:00,
2013-02-04 02:57:00,25.9,17.4,29.92,WNW,300,10.0,16.0,70,0.00,,,0.00,meteohub,2013-02-04 07:57:00,
2013-02-04 03:02:00,25.9,17.1,29.92,WNW,284,14.0,15.0,69,0.00,,,0.00,meteohub,2013-02-04 08:02:00,
2013-02-04 03:07:00,25.9,16.7,29.92,WNW,289,10.0,17.0,68,0.00,,,0.00,meteohub,2013-02-04 08:07:00,
2013-02-04 03:12:00,25.5,16.5,29.93,WNW,291,9.0,20.0,68,0.00,,,0.00,meteohub,2013-02-04 08:12:00,
2013-02-04 03:17:00,25.5,16.5,29.92,WNW,283,5.0,20.0,68,0.00,,,0.00,meteohub,2013-02-04 08:17:00,
2013-02-04 03:22:00,25.5,16.2,29.93,WNW,288,8.0,20.0,67,0.00,,,0.00,meteohub,2013-02-04 08:22:00,
2013-02-04 03:27:00,25.3,16.0,29.93,WNW,298,14.0,16.0,67,0.00,,,0.00,meteohub,2013-02-04 08:27:00,
2013-02-04 03:32:00,25.3,15.6,29.93,NW,314,4.0,17.0,66,0.00,,,0.00,meteohub,2013-02-04 08:32:00,
2013-02-04 03:37:00,25.2,15.4,29.93,West,280,5.0,17.0,66,0.00,,,0.00,meteohub,2013-02-04 08:37:00,
2013-02-04 03:42:00,25.2,15.4,29.93,WNW,300,14.0,17.0,66,0.00,,,0.00,meteohub,2013-02-04 08:42:00,
2013-02-04 03:47:00,25.0,15.3,29.94,NW,307,10.0,17.0,66,0.00,,,0.00,meteohub,2013-02-04 08:47:00,
2013-02-04 03:52:00,25.0,15.3,29.94,NW,304,8.0,17.0,66,0.00,,,0.00,meteohub,2013-02-04 08:52:00,
2013-02-04 03:57:00,24.8,15.1,29.94,WNW,290,10.0,21.0,66,0.00,,,0.00,meteohub,2013-02-04 08:57:00,
2013-02-04 04:02:00,24.6,14.5,29.94,West,274,11.0,21.0,65,0.00,,,0.00,meteohub,2013-02-04 09:02:00,
2013-02-04 04:07:00,24.6,14.5,29.94,WNW,302,5.0,21.0,65,0.00,,,0.00,meteohub,2013-02-04 09:07:00,
2013-02-04 04:12:00,24.4,14.4,29.95,West,274,9.0,20.0,65,0.00,,,0.00,meteohub,2013-02-04 09:12:00,
2013-02-04 04:17:00,24.4,14.4,29.95,WNW,289,8.0,20.0,65,0.00,,,0.00,meteohub,2013-02-04 09:17:00,
2013-02-04 04:22:00,24.3,14.2,29.96,NW,315,9.0,19.0,65,0.00,,,0.00,meteohub,2013-02-04 09:22:00,
2013-02-04 04:27:00,24.3,14.2,29.96,WNW,297,6.0,19.0,65,0.00,,,0.00,meteohub,2013-02-04 09:27:00,
2013-02-04 04:32:00,24.1,14.0,29.96,WNW,295,11.0,19.0,65,0.00,,,0.00,meteohub,2013-02-04 09:32:00,
2013-02-04 04:37:00,24.1,14.0,29.96,WNW,290,16.0,16.0,65,0.00,,,0.00,meteohub,2013-02-04 09:37:00,
2013-02-04 04:42:00,24.1,13.6,29.96,NNW,331,4.0,16.0,64,0.00,,,0.00,meteohub,2013-02-04 09:42:00,
2013-02-04 04:47:00,23.9,13.5,29.96,WNW,290,8.0,16.0,64,0.00,,,0.00,meteohub,2013-02-04 09:47:00,
2013-02-04 04:52:00,23.9,13.5,29.96,WNW,294,8.0,16.0,64,0.00,,,0.00,meteohub,2013-02-04 09:52:00,
2013-02-04 04:57:00,23.7,13.3,29.97,WNW,302,6.0,15.0,64,0.00,,,0.00,meteohub,2013-02-04 09:57:00,
2013-02-04 05:02:00,23.7,13.3,29.97,West,259,8.0,15.0,64,0.00,,,0.00,meteohub,2013-02-04 10:02:00,
2013-02-04 05:07:00,23.5,13.1,29.97,NW,304,10.0,14.0,64,0.00,,,0.00,meteohub,2013-02-04 10:07:00,
2013-02-04 05:12:00,23.5,13.1,29.98,WNW,296,9.0,16.0,64,0.00,,,0.00,meteohub,2013-02-04 10:12:00,
2013-02-04 05:17:00,23.5,13.1,29.98,WNW,293,4.0,16.0,64,0.00,,,0.00,meteohub,2013-02-04 10:17:00,
2013-02-04 05:22:00,23.4,13.3,29.98,WNW,301,9.0,16.0,65,0.00,,,0.00,meteohub,2013-02-04 10:22:00,
2013-02-04 05:27:00,23.4,12.9,29.98,NW,305,10.0,13.0,64,0.00,,,0.00,meteohub,2013-02-04 10:27:00,
2013-02-04 05:32:00,23.4,12.9,29.98,NW,323,8.0,15.0,64,0.00,,,0.00,meteohub,2013-02-04 10:32:00,
2013-02-04 05:37:00,23.4,12.9,29.98,WNW,285,5.0,15.0,64,0.00,,,0.00,meteohub,2013-02-04 10:37:00,
2013-02-04 05:42:00,23.4,12.9,29.99,WNW,300,3.0,15.0,64,0.00,,,0.00,meteohub,2013-02-04 10:42:00,
2013-02-04 05:47:00,23.4,12.9,29.99,WNW,295,6.0,14.0,64,0.00,,,0.00,meteohub,2013-02-04 10:47:00,
2013-02-04 05:52:00,23.4,12.9,29.99,WNW,300,6.0,13.0,64,0.00,,,0.00,meteohub,2013-02-04 10:52:00,
2013-02-04 05:57:00,23.2,12.7,29.99,WNW,290,6.0,12.0,64,0.00,,,0.00,meteohub,2013-02-04 10:57:00,
2013-02-04 06:02:00,23.2,12.7,29.99,WNW,287,1.0,12.0,64,0.00,,,0.00,meteohub,2013-02-04 11:02:00,
2013-02-04 06:07:00,23.2,12.4,29.99,WNW,302,5.0,9.0,63,0.00,,,0.00,meteohub,2013-02-04 11:07:00,
2013-02-04 06:12:00,23.2,12.4,29.99,NW,319,3.0,9.0,63,0.00,,,0.00,meteohub,2013-02-04 11:12:00,
2013-02-04 06:17:00,23.4,12.6,29.99,WNW,296,4.0,9.0,63,0.00,,,0.00,meteohub,2013-02-04 11:17:00,
2013-02-04 06:22:00,23.4,12.6,30.00,SW,233,4.0,14.0,63,0.00,,,0.00,meteohub,2013-02-04 11:22:00,
2013-02-04 06:27:00,23.4,12.6,30.00,WNW,298,6.0,14.0,63,0.00,,,0.00,meteohub,2013-02-04 11:27:00,
2013-02-04 06:32:00,23.2,12.7,30.00,WNW,300,10.0,14.0,64,0.00,,,0.00,meteohub,2013-02-04 11:32:00,
2013-02-04 06:37:00,23.2,12.7,29.99,WNW,298,5.0,12.0,64,0.00,,,0.00,meteohub,2013-02-04 11:37:00,
2013-02-04 06:42:00,23.2,12.7,29.99,West,271,5.0,10.0,64,0.00,,,0.00,meteohub,2013-02-04 11:42:00,
2013-02-04 06:47:00,23.2,13.1,30.00,West,268,3.0,10.0,65,0.00,,,0.00,meteohub,2013-02-04 11:47:00,
2013-02-04 06:52:00,23.2,13.1,30.00,NW,308,5.0,10.0,65,0.00,,,0.00,meteohub,2013-02-04 11:52:00,
2013-02-04 06:57:00,23.2,13.1,30.00,West,273,3.0,10.0,65,0.00,,,0.00,meteohub,2013-02-04 11:57:00,
2013-02-04 07:02:00,23.2,13.1,30.00,WNW,293,4.0,9.0,65,0.00,,,0.00,meteohub,2013-02-04 12:02:00,
2013-02-04 07:07:00,23.2,13.1,30.00,West,268,3.0,10.0,65,0.00,,,0.00,meteohub,2013-02-04 12:07:00,
2013-02-04 07:12:00,23.2,13.1,30.01,West,278,5.0,10.0,65,0.00,,,0.00,meteohub,2013-02-04 12:12:00,
2013-02-04 07:17:00,23.0,12.9,30.01,WNW,300,6.0,10.0,65,0.00,,,0.00,meteohub,2013-02-04 12:17:00,
2013-02-04 07:22:00,23.0,12.9,30.01,WNW,295,4.0,9.0,65,0.00,,,0.00,meteohub,2013-02-04 12:22:00,
2013-02-04 07:27:00,23.0,13.3,30.01,WNW,295,2.0,9.0,66,0.00,,,0.00,meteohub,2013-02-04 12:27:00,
2013-02-04 07:32:00,23.2,13.5,30.02,WNW,290,2.0,8.0,66,0.00,,,0.00,meteohub,2013-02-04 12:32:00,
2013-02-04 07:37:00,23.2,13.5,30.02,WNW,294,5.0,10.0,66,0.00,,,0.00,meteohub,2013-02-04 12:37:00,
2013-02-04 07:42:00,23.4,13.3,30.03,WNW,290,5.0,11.0,65,0.00,,,0.00,meteohub,2013-02-04 12:42:00,
2013-02-04 07:47:00,23.5,13.5,30.03,WNW,287,10.0,12.0,65,0.00,,,0.00,meteohub,2013-02-04 12:47:00,
2013-02-04 07:52:00,23.5,13.5,30.03,WNW,296,6.0,13.0,65,0.00,,,0.00,meteohub,2013-02-04 12:52:00,
2013-02-04 07:57:00,23.7,13.6,30.03,NW,316,11.0,13.0,65,0.00,,,0.00,meteohub,2013-02-04 12:57:00,
2013-02-04 08:02:00,23.9,13.8,30.03,WNW,295,5.0,15.0,65,0.00,,,0.00,meteohub,2013-02-04 13:02:00,
2013-02-04 08:07:00,24.1,14.0,30.03,WNW,285,6.0,15.0,65,0.00,,,0.00,meteohub,2013-02-04 13:07:00,
2013-02-04 08:12:00,24.1,13.6,30.03,WNW,297,7.0,15.0,64,0.00,,,0.00,meteohub,2013-02-04 13:12:00,
2013-02-04 08:18:00,24.3,13.8,30.03,WNW,285,5.0,14.0,64,0.00,,,0.00,meteohub,2013-02-04 13:18:00,
2013-02-04 08:22:00,24.3,13.8,30.03,NNW,330,2.0,14.0,64,0.00,,,0.00,meteohub,2013-02-04 13:22:00,
2013-02-04 08:28:00,24.4,14.0,30.03,WNW,284,12.0,14.0,64,0.00,,,0.00,meteohub,2013-02-04 13:28:00,
2013-02-04 08:33:00,24.6,14.2,30.04,WNW,294,4.0,14.0,64,0.00,,,0.00,meteohub,2013-02-04 13:33:00,
2013-02-04 08:38:00,24.6,13.5,30.04,WNW,296,6.0,13.0,62,0.00,,,0.00,meteohub,2013-02-04 13:38:00,
2013-02-04 08:43:00,24.6,13.5,30.04,West,281,8.0,17.0,62,0.00,,,0.00,meteohub,2013-02-04 13:43:00,
2013-02-04 08:48:00,25.0,13.8,30.04,WNW,284,6.0,17.0,62,0.00,,,0.00,meteohub,2013-02-04 13:48:00,
2013-02-04 08:53:00,25.0,13.8,30.04,WNW,302,9.0,17.0,62,0.00,,,0.00,meteohub,2013-02-04 13:53:00,
2013-02-04 08:58:00,25.2,14.0,30.04,West,278,12.0,15.0,62,0.00,,,0.00,meteohub,2013-02-04 13:58:00,
2013-02-04 09:03:00,25.3,13.8,30.04,WNW,300,7.0,15.0,61,0.00,,,0.00,meteohub,2013-02-04 14:03:00,
2013-02-04 09:08:00,25.3,13.5,30.04,NW,309,7.0,18.0,60,0.00,,,0.00,meteohub,2013-02-04 14:08:00,
2013-02-04 09:13:00,25.5,13.6,30.05,WNW,294,6.0,18.0,60,0.00,,,0.00,meteohub,2013-02-04 14:13:00,
2013-02-04 09:18:00,25.9,13.8,30.04,NW,305,11.0,18.0,60,0.00,,,0.00,meteohub,2013-02-04 14:18:00,
2013-02-04 09:23:00,25.9,13.5,30.04,WSW,256,8.0,18.0,59,0.00,,,0.00,meteohub,2013-02-04 14:23:00,
2013-02-04 09:28:00,26.2,13.5,30.05,WNW,294,4.0,18.0,58,0.00,,,0.00,meteohub,2013-02-04 14:28:00,
2013-02-04 09:33:00,26.2,13.5,30.05,NW,304,8.0,21.0,58,0.00,,,0.00,meteohub,2013-02-04 14:33:00,
2013-02-04 09:38:00,26.4,13.3,30.05,NW,313,5.0,21.0,57,0.00,,,0.00,meteohub,2013-02-04 14:38:00,
2013-02-04 09:43:00,26.8,13.1,30.04,WNW,291,12.0,21.0,56,0.00,,,0.00,meteohub,2013-02-04 14:43:00,
2013-02-04 09:48:00,26.8,13.1,30.04,West,281,10.0,18.0,56,0.00,,,0.00,meteohub,2013-02-04 14:48:00,
2013-02-04 09:53:00,26.8,12.7,30.04,WNW,301,6.0,21.0,55,0.00,,,0.00,meteohub,2013-02-04 14:53:00,
2013-02-04 09:58:00,27.0,12.9,30.04,WNW,288,8.0,25.0,55,0.00,,,0.00,meteohub,2013-02-04 14:58:00,
2013-02-04 10:03:00,27.0,12.9,30.04,NW,312,9.0,25.0,55,0.00,,,0.00,meteohub,2013-02-04 15:03:00,
2013-02-04 10:08:00,27.0,12.6,30.05,NW,305,14.0,25.0,54,0.00,,,0.00,meteohub,2013-02-04 15:08:00,
2013-02-04 10:13:00,27.0,12.0,30.04,NW,308,9.0,22.0,53,0.00,,,0.00,meteohub,2013-02-04 15:13:00,
2013-02-04 10:18:00,27.1,12.2,30.04,West,278,9.0,21.0,53,0.00,,,0.00,meteohub,2013-02-04 15:18:00,
2013-02-04 10:23:00,27.3,12.9,30.05,NW,307,8.0,21.0,54,0.00,,,0.00,meteohub,2013-02-04 15:23:00,
2013-02-04 10:28:00,27.7,12.7,30.04,WNW,293,13.0,21.0,53,0.00,,,0.00,meteohub,2013-02-04 15:28:00,
2013-02-04 10:33:00,27.7,12.7,30.04,WNW,290,8.0,22.0,53,0.00,,,0.00,meteohub,2013-02-04 15:33:00,
2013-02-04 10:38:00,27.9,12.9,30.04,WNW,284,10.0,22.0,53,0.00,,,0.00,meteohub,2013-02-04 15:38:00,
2013-02-04 10:43:00,28.0,12.7,30.04,West,276,8.0,22.0,52,0.00,,,0.00,meteohub,2013-02-04 15:43:00,
2013-02-04 10:48:00,28.0,12.2,30.04,WNW,292,13.0,18.0,51,0.00,,,0.00,meteohub,2013-02-04 15:48:00,
2013-02-04 10:53:00,28.0,12.7,30.05,NNW,336,3.0,17.0,52,0.00,,,0.00,meteohub,2013-02-04 15:53:00,
2013-02-04 10:58:00,28.2,12.9,30.05,WSW,239,11.0,17.0,52,0.00,,,0.00,meteohub,2013-02-04 15:58:00,
2013-02-04 11:03:00,28.2,12.4,30.04,WNW,291,9.0,16.0,51,0.00,,,0.00,meteohub,2013-02-04 16:03:00,
2013-02-04 11:08:00,28.2,12.0,30.04,WNW,302,12.0,19.0,50,0.00,,,0.00,meteohub,2013-02-04 16:08:00,
2013-02-04 11:13:00,28.2,12.9,30.04,WNW,288,11.0,24.0,52,0.00,,,0.00,meteohub,2013-02-04 16:13:00,
2013-02-04 11:18:00,28.2,12.4,30.04,NW,307,7.0,24.0,51,0.00,,,0.00,meteohub,2013-02-04 16:18:00,
2013-02-04 11:23:00,28.4,13.1,30.04,WSW,253,8.0,24.0,52,0.00,,,0.00,meteohub,2013-02-04 16:23:00,
2013-02-04 11:28:00,28.8,12.9,30.04,NW,309,7.0,20.0,51,0.00,,,0.00,meteohub,2013-02-04 16:28:00,
2013-02-04 11:33:00,28.8,13.3,30.04,WNW,300,8.0,20.0,52,0.00,,,0.00,meteohub,2013-02-04 16:33:00,
2013-02-04 11:38:00,28.6,13.1,30.04,WNW,298,9.0,16.0,52,0.00,,,0.00,meteohub,2013-02-04 16:38:00,
2013-02-04 11:43:00,28.2,12.4,30.04,WSW,256,11.0,24.0,51,0.00,,,0.00,meteohub,2013-02-04 16:43:00,
2013-02-04 11:48:00,28.0,12.7,30.04,NW,309,7.0,24.0,52,0.00,,,0.00,meteohub,2013-02-04 16:48:00,
2013-02-04 11:53:00,28.0,12.7,30.04,WNW,284,10.0,24.0,52,0.00,,,0.00,meteohub,2013-02-04 16:53:00,
2013-02-04 11:58:00,28.6,12.7,30.04,WNW,287,12.0,21.0,51,0.00,,,0.00,meteohub,2013-02-04 16:58:00,
2013-02-04 12:03:00,28.9,12.6,30.03,West,280,10.0,21.0,50,0.00,,,0.00,meteohub,2013-02-04 17:03:00,
2013-02-04 12:08:00,28.9,11.3,30.03,West,263,5.0,20.0,47,0.00,,,0.00,meteohub,2013-02-04 17:08:00,
2013-02-04 12:13:00,28.9,11.3,30.03,West,276,10.0,20.0,47,0.00,,,0.00,meteohub,2013-02-04 17:13:00,
2013-02-04 12:18:00,29.1,12.4,30.03,WNW,300,10.0,20.0,49,0.00,,,0.00,meteohub,2013-02-04 17:18:00,
2013-02-04 12:23:00,29.5,12.2,30.02,NNW,340,6.0,20.0,48,0.00,,,0.00,meteohub,2013-02-04 17:23:00,
2013-02-04 12:28:00,29.5,11.7,30.02,West,266,12.0,18.0,47,0.00,,,0.00,meteohub,2013-02-04 17:28:00,
2013-02-04 12:33:00,28.9,11.3,30.02,WSW,253,5.0,19.0,47,0.00,,,0.00,meteohub,2013-02-04 17:33:00,
2013-02-04 12:38:00,28.9,11.3,30.02,WNW,298,6.0,19.0,47,0.00,,,0.00,meteohub,2013-02-04 17:38:00,
2013-02-04 12:43:00,29.5,11.3,30.02,WNW,300,10.0,19.0,46,0.00,,,0.00,meteohub,2013-02-04 17:43:00,
2013-02-04 12:48:00,29.7,10.9,30.01,WNW,295,16.0,19.0,45,0.00,,,0.00,meteohub,2013-02-04 17:48:00,
2013-02-04 12:53:00,29.8,11.1,30.01,WSW,250,8.0,19.0,45,0.00,,,0.00,meteohub,2013-02-04 17:53:00,
2013-02-04 12:58:00,29.7,10.9,30.01,WNW,300,10.0,20.0,45,0.00,,,0.00,meteohub,2013-02-04 17:58:00,
2013-02-04 13:03:00,29.8,11.1,30.01,WNW,290,7.0,22.0,45,0.00,,,0.00,meteohub,2013-02-04 18:03:00,
2013-02-04 13:08:00,29.5,11.3,30.01,WNW,283,16.0,22.0,46,0.00,,,0.00,meteohub,2013-02-04 18:08:00,
2013-02-04 13:13:00,29.7,11.8,30.01,West,281,14.0,23.0,47,0.00,,,0.00,meteohub,2013-02-04 18:13:00,
2013-02-04 13:18:00,29.7,11.5,30.01,WNW,297,23.0,23.0,46,0.00,,,0.00,meteohub,2013-02-04 18:18:00,
2013-02-04 13:23:00,29.5,11.3,30.01,West,271,5.0,23.0,46,0.00,,,0.00,meteohub,2013-02-04 18:23:00,
2013-02-04 13:28:00,29.8,11.7,30.00,WNW,301,11.0,23.0,46,0.00,,,0.00,meteohub,2013-02-04 18:28:00,
2013-02-04 13:33:00,29.7,10.9,30.00,West,270,13.0,23.0,45,0.00,,,0.00,meteohub,2013-02-04 18:33:00,
2013-02-04 13:38:00,29.8,11.1,30.00,NW,319,13.0,22.0,45,0.00,,,0.00,meteohub,2013-02-04 18:38:00,
2013-02-04 13:43:00,29.8,11.7,30.00,NW,304,5.0,24.0,46,0.00,,,0.00,meteohub,2013-02-04 18:43:00,
2013-02-04 13:48:00,30.0,10.8,30.00,WNW,298,13.0,24.0,44,0.00,,,0.00,meteohub,2013-02-04 18:48:00,
2013-02-04 13:53:00,29.7,10.9,30.00,WNW,285,4.0,24.0,45,0.00,,,0.00,meteohub,2013-02-04 18:53:00,
2013-02-04 13:58:00,29.7,11.5,30.00,WNW,292,14.0,21.0,46,0.00,,,0.00,meteohub,2013-02-04 18:58:00,
2013-02-04 14:03:00,29.7,11.5,30.00,NW,305,7.0,21.0,46,0.00,,,0.00,meteohub,2013-02-04 19:03:00,
2013-02-04 14:09:00,30.0,11.7,29.99,West,278,5.0,20.0,46,0.00,,,0.00,meteohub,2013-02-04 19:09:00,
2013-02-04 14:14:00,30.2,11.5,29.99,NW,311,9.0,16.0,45,0.00,,,0.00,meteohub,2013-02-04 19:14:00,
2013-02-04 14:16:00,30.0,11.3,29.99,West,277,8.0,16.0,45,0.00,,,0.00,meteohub,2013-02-04 19:16:00,
2013-02-04 14:22:00,30.0,11.7,29.99,WNW,302,11.0,19.0,46,0.00,,,0.00,meteohub,2013-02-04 19:22:00,
2013-02-04 14:27:00,30.0,11.3,29.99,WNW,301,10.0,22.0,45,0.00,,,0.00,meteohub,2013-02-04 19:27:00,
2013-02-04 14:32:00,29.8,11.1,30.00,WNW,284,11.0,22.0,45,0.00,,,0.00,meteohub,2013-02-04 19:32:00,
2013-02-04 14:37:00,29.8,11.1,29.99,NW,319,2.0,23.0,45,0.00,,,0.00,meteohub,2013-02-04 19:37:00,
2013-02-04 14:42:00,29.8,11.1,30.00,WNW,300,15.0,23.0,45,0.00,,,0.00,meteohub,2013-02-04 19:42:00,
2013-02-04 14:47:00,29.7,11.5,30.00,NW,305,6.0,23.0,46,0.00,,,0.00,meteohub,2013-02-04 19:47:00,
2013-02-04 14:52:00,30.2,11.8,29.99,WNW,302,13.0,19.0,46,0.00,,,0.00,meteohub,2013-02-04 19:52:00,
2013-02-04 14:57:00,30.4,11.1,29.99,WNW,297,9.0,19.0,44,0.00,,,0.00,meteohub,2013-02-04 19:57:00,
2013-02-04 15:02:00,30.4,11.1,29.99,West,259,9.0,20.0,44,0.00,,,0.00,meteohub,2013-02-04 20:02:00,
2013-02-04 15:07:00,30.0,10.8,29.99,WNW,292,11.0,21.0,44,0.00,,,0.00,meteohub,2013-02-04 20:07:00,
2013-02-04 15:12:00,30.0,11.3,29.99,WNW,294,8.0,21.0,45,0.00,,,0.00,meteohub,2013-02-04 20:12:00,
2013-02-04 15:17:00,30.0,10.8,29.99,West,264,9.0,21.0,44,0.00,,,0.00,meteohub,2013-02-04 20:17:00,
2013-02-04 15:22:00,30.2,11.5,29.99,WNW,290,10.0,21.0,45,0.00,,,0.00,meteohub,2013-02-04 20:22:00,
2013-02-04 15:27:00,30.2,10.9,29.99,WNW,296,8.0,21.0,44,0.00,,,0.00,meteohub,2013-02-04 20:27:00,
2013-02-04 15:32:00,30.4,11.1,29.99,West,260,12.0,21.0,44,0.00,,,0.00,meteohub,2013-02-04 20:32:00,
2013-02-04 15:37:00,30.4,11.1,29.99,West,269,12.0,19.0,44,0.00,,,0.00,meteohub,2013-02-04 20:37:00,
2013-02-04 15:42:00,30.4,11.1,29.99,NW,307,10.0,19.0,44,0.00,,,0.00,meteohub,2013-02-04 20:42:00,
2013-02-04 15:47:00,30.2,10.9,29.99,NW,317,13.0,19.0,44,0.00,,,0.00,meteohub,2013-02-04 20:47:00,
2013-02-04 15:52:00,30.0,10.8,29.99,West,270,14.0,19.0,44,0.00,,,0.00,meteohub,2013-02-04 20:52:00,
2013-02-04 15:57:00,30.0,11.3,29.99,NW,304,10.0,19.0,45,0.00,,,0.00,meteohub,2013-02-04 20:57:00,
2013-02-04 16:02:00,30.0,11.3,29.99,NW,309,7.0,19.0,45,0.00,,,0.00,meteohub,2013-02-04 21:02:00,
2013-02-04 16:07:00,29.8,11.1,29.99,West,269,10.0,17.0,45,0.00,,,0.00,meteohub,2013-02-04 21:07:00,
2013-02-04 16:12:00,29.7,10.9,29.99,NNW,345,6.0,17.0,45,0.00,,,0.00,meteohub,2013-02-04 21:12:00,
2013-02-04 16:17:00,29.7,10.9,29.99,WNW,301,12.0,17.0,45,0.00,,,0.00,meteohub,2013-02-04 21:17:00,
2013-02-04 16:22:00,29.7,11.5,29.99,West,271,8.0,18.0,46,0.00,,,0.00,meteohub,2013-02-04 21:22:00,
2013-02-04 16:27:00,29.7,10.9,30.00,NW,305,9.0,19.0,45,0.00,,,0.00,meteohub,2013-02-04 21:27:00,
2013-02-04 16:32:00,29.7,10.9,30.00,West,278,9.0,19.0,45,0.00,,,0.00,meteohub,2013-02-04 21:32:00,
2013-02-04 16:37:00,29.7,10.9,30.00,NW,309,13.0,19.0,45,0.00,,,0.00,meteohub,2013-02-04 21:37:00,
2013-02-04 16:42:00,29.7,11.5,30.00,WNW,288,5.0,19.0,46,0.00,,,0.00,meteohub,2013-02-04 21:42:00,
2013-02-04 16:47:00,29.7,11.5,29.99,West,260,7.0,17.0,46,0.00,,,0.00,meteohub,2013-02-04 21:47:00,
2013-02-04 16:52:00,29.7,11.8,30.00,WNW,300,10.0,17.0,47,0.00,,,0.00,meteohub,2013-02-04 21:52:00,
2013-02-04 16:57:00,29.7,11.8,30.00,WNW,302,7.0,15.0,47,0.00,,,0.00,meteohub,2013-02-04 21:57:00,
2013-02-04 17:02:00,29.7,11.8,30.00,WNW,291,14.0,15.0,47,0.00,,,0.00,meteohub,2013-02-04 22:02:00,
2013-02-04 17:07:00,29.5,11.7,30.00,NW,306,7.0,15.0,47,0.00,,,0.00,meteohub,2013-02-04 22:07:00,
2013-02-04 17:12:00,29.3,12.0,30.00,NW,304,3.0,15.0,48,0.00,,,0.00,meteohub,2013-02-04 22:12:00,
2013-02-04 17:17:00,29.1,11.8,30.01,WNW,293,6.0,15.0,48,0.00,,,0.00,meteohub,2013-02-04 22:17:00,
2013-02-04 17:22:00,29.1,11.8,30.01,WNW,295,5.0,13.0,48,0.00,,,0.00,meteohub,2013-02-04 22:22:00,
2013-02-04 17:27:00,28.9,12.2,30.00,West,259,6.0,13.0,49,0.00,,,0.00,meteohub,2013-02-04 22:27:00,
2013-02-04 17:32:00,28.9,12.2,30.01,WNW,302,7.0,14.0,49,0.00,,,0.00,meteohub,2013-02-04 22:32:00,
2013-02-04 17:37:00,28.9,12.2,30.01,NW,304,5.0,14.0,49,0.00,,,0.00,meteohub,2013-02-04 22:37:00,
2013-02-04 17:42:00,28.9,12.2,30.01,West,267,5.0,14.0,49,0.00,,,0.00,meteohub,2013-02-04 22:42:00,
2013-02-04 17:47:00,28.9,12.2,30.01,West,274,5.0,14.0,49,0.00,,,0.00,meteohub,2013-02-04 22:47:00,
2013-02-04 17:52:00,28.8,12.0,30.01,WSW,253,4.0,14.0,49,0.00,,,0.00,meteohub,2013-02-04 22:52:00,
2013-02-04 17:57:00,28.8,12.4,30.01,SW,225,3.0,12.0,50,0.00,,,0.00,meteohub,2013-02-04 22:57:00,
2013-02-04 18:02:00,28.8,12.4,30.01,WNW,292,5.0,10.0,50,0.00,,,0.00,meteohub,2013-02-04 23:02:00,
2013-02-04 18:07:00,28.8,12.4,30.01,West,271,4.0,12.0,50,0.00,,,0.00,meteohub,2013-02-04 23:07:00,
2013-02-04 18:12:00,28.6,12.7,30.01,WNW,289,3.0,12.0,51,0.00,,,0.00,meteohub,2013-02-04 23:12:00,
2013-02-04 18:17:00,28.6,12.7,30.02,WNW,287,3.0,12.0,51,0.00,,,0.00,meteohub,2013-02-04 23:17:00,
2013-02-04 18:22:00,28.6,12.7,30.02,West,276,1.0,10.0,51,0.00,,,0.00,meteohub,2013-02-04 23:22:00,
2013-02-04 18:27:00,28.6,12.7,30.02,West,278,3.0,8.0,51,0.00,,,0.00,meteohub,2013-02-04 23:27:00,
2013-02-04 18:32:00,28.6,13.1,30.02,West,273,6.0,8.0,52,0.00,,,0.00,meteohub,2013-02-04 23:32:00,
2013-02-04 18:37:00,28.4,13.1,30.03,West,264,4.0,8.0,52,0.00,,,0.00,meteohub,2013-02-04 23:37:00,
2013-02-04 18:42:00,28.2,13.3,30.03,WNW,288,4.0,6.0,53,0.00,,,0.00,meteohub,2013-02-04 23:42:00,
2013-02-04 18:47:00,28.2,13.3,30.02,WNW,291,2.0,6.0,53,0.00,,,0.00,meteohub,2013-02-04 23:47:00,
2013-02-04 18:52:00,28.0,13.1,30.02,WNW,283,3.0,5.0,53,0.00,,,0.00,meteohub,2013-02-04 23:52:00,
2013-02-04 18:57:00,28.0,13.1,30.03,West,278,1.0,5.0,53,0.00,,,0.00,meteohub,2013-02-04 23:57:00,
2013-02-04 19:02:00,27.9,13.5,30.03,WSW,253,0.0,5.0,54,0.00,,,0.00,meteohub,2013-02-05 00:02:00,
2013-02-04 19:07:00,27.7,13.3,30.03,SW,222,1.0,5.0,54,0.00,,,0.00,meteohub,2013-02-05 00:07:00,
2013-02-04 19:12:00,27.5,13.5,30.03,SW,222,0.0,2.0,55,0.00,,,0.00,meteohub,2013-02-05 00:12:00,
2013-02-04 19:17:00,27.3,13.3,30.02,SW,228,0.0,2.0,55,0.00,,,0.00,meteohub,2013-02-05 00:17:00,
2013-02-04 19:22:00,27.1,13.1,30.02,West,274,1.0,2.0,55,0.00,,,0.00,meteohub,2013-02-05 00:22:00,
2013-02-04 19:27:00,27.1,13.5,30.03,WSW,239,0.0,2.0,56,0.00,,,0.00,meteohub,2013-02-05 00:27:00,
2013-02-04 19:32:00,27.1,13.5,30.03,WNW,293,1.0,3.0,56,0.00,,,0.00,meteohub,2013-02-05 00:32:00,
2013-02-04 19:37:00,27.3,13.6,30.03,WNW,283,2.0,4.0,56,0.00,,,0.00,meteohub,2013-02-05 00:37:00,
2013-02-04 19:42:00,27.3,13.6,30.03,WSW,252,1.0,4.0,56,0.00,,,0.00,meteohub,2013-02-05 00:42:00,
2013-02-04 19:47:00,27.3,13.6,30.03,WNW,294,1.0,4.0,56,0.00,,,0.00,meteohub,2013-02-05 00:47:00,
2013-02-04 19:52:00,27.1,13.5,30.03,WSW,253,0.0,3.0,56,0.00,,,0.00,meteohub,2013-02-05 00:52:00,
2013-02-04 19:57:00,27.0,13.8,30.03,WSW,257,0.0,3.0,57,0.00,,,0.00,meteohub,2013-02-05 00:57:00,
2013-02-04 20:02:00,26.8,13.6,30.02,WSW,255,0.0,2.0,57,0.00,,,0.00,meteohub,2013-02-05 01:02:00,
2013-02-04 20:07:00,26.4,13.6,30.02,WSW,255,0.0,1.0,58,0.00,,,0.00,meteohub,2013-02-05 01:07:00,
2013-02-04 20:12:00,26.2,13.8,30.02,WSW,255,0.0,1.0,59,0.00,,,0.00,meteohub,2013-02-05 01:12:00,
2013-02-04 20:17:00,26.1,13.6,30.02,SSW,195,0.0,1.0,59,0.00,,,0.00,meteohub,2013-02-05 01:17:00,
2013-02-04 20:22:00,25.9,13.5,30.02,SSW,195,0.0,1.0,59,0.00,,,0.00,meteohub,2013-02-05 01:22:00,
2013-02-04 20:27:00,25.9,13.5,30.02,SSW,200,0.0,0.0,59,0.00,,,0.00,meteohub,2013-02-05 01:27:00,
2013-02-04 20:32:00,25.5,13.6,30.02,SSW,200,0.0,0.0,60,0.00,,,0.00,meteohub,2013-02-05 01:32:00,
2013-02-04 20:37:00,25.5,14.0,30.02,SSW,200,0.0,0.0,61,0.00,,,0.00,meteohub,2013-02-05 01:37:00,
2013-02-04 20:42:00,25.3,13.8,30.02,SSW,198,0.0,0.0,61,0.00,,,0.00,meteohub,2013-02-05 01:42:00,
2013-02-04 20:47:00,25.3,14.2,30.02,SW,222,0.0,0.0,62,0.00,,,0.00,meteohub,2013-02-05 01:47:00,
2013-02-04 20:52:00,25.7,14.5,30.03,SSW,204,0.0,1.0,62,0.00,,,0.00,meteohub,2013-02-05 01:52:00,
2013-02-04 20:57:00,25.7,14.2,30.02,SSW,205,0.0,1.0,61,0.00,,,0.00,meteohub,2013-02-05 01:57:00,
2013-02-04 21:02:00,25.9,14.4,30.03,SW,224,0.0,2.0,61,0.00,,,0.00,meteohub,2013-02-05 02:02:00,
2013-02-04 21:07:00,26.1,14.0,30.03,SSW,204,0.0,2.0,60,0.00,,,0.00,meteohub,2013-02-05 02:07:00,
2013-02-04 21:12:00,26.2,14.5,30.02,South,191,0.0,2.0,61,0.00,,,0.00,meteohub,2013-02-05 02:12:00,
2013-02-04 21:17:00,26.2,14.5,30.02,SSE,162,0.0,2.0,61,0.00,,,0.00,meteohub,2013-02-05 02:17:00,
2013-02-04 21:22:00,26.2,14.5,30.02,SSE,162,0.0,1.0,61,0.00,,,0.00,meteohub,2013-02-05 02:22:00,
2013-02-04 21:27:00,26.2,15.1,30.02,SSE,162,0.0,1.0,62,0.00,,,0.00,meteohub,2013-02-05 02:27:00,
2013-02-04 21:32:00,26.4,14.7,30.02,SW,229,0.0,1.0,61,0.00,,,0.00,meteohub,2013-02-05 02:32:00,
2013-02-04 21:37:00,26.4,14.7,30.02,SW,228,0.0,1.0,61,0.00,,,0.00,meteohub,2013-02-05 02:37:00,
2013-02-04 21:42:00,26.8,14.7,30.02,SSW,204,0.0,1.0,60,0.00,,,0.00,meteohub,2013-02-05 02:42:00,
2013-02-04 21:47:00,27.1,15.1,30.02,WSW,238,0.0,4.0,60,0.00,,,0.00,meteohub,2013-02-05 02:47:00,
2013-02-04 21:52:00,27.3,14.9,30.02,WNW,283,0.0,4.0,59,0.00,,,0.00,meteohub,2013-02-05 02:52:00,
2013-02-04 21:57:00,27.5,15.1,30.02,SSW,200,1.0,4.0,59,0.00,,,0.00,meteohub,2013-02-05 02:57:00,
2013-02-04 22:02:00,27.7,15.6,30.02,South,187,0.0,3.0,60,0.00,,,0.00,meteohub,2013-02-05 03:02:00,
2013-02-04 22:07:00,27.5,15.4,30.02,South,189,0.0,3.0,60,0.00,,,0.00,meteohub,2013-02-05 03:07:00,
2013-02-04 22:12:00,27.7,15.6,30.02,SW,217,0.0,2.0,60,0.00,,,0.00,meteohub,2013-02-05 03:12:00,
2013-02-04 22:17:00,27.7,15.6,30.02,SSW,194,0.0,2.0,60,0.00,,,0.00,meteohub,2013-02-05 03:17:00,
2013-02-04 22:22:00,27.7,15.6,30.02,SW,229,1.0,2.0,60,0.00,,,0.00,meteohub,2013-02-05 03:22:00,
2013-02-04 22:27:00,27.7,15.6,30.02,SSW,207,0.0,2.0,60,0.00,,,0.00,meteohub,2013-02-05 03:27:00,
2013-02-04 22:32:00,27.7,16.0,30.02,SW,214,1.0,2.0,61,0.00,,,0.00,meteohub,2013-02-05 03:32:00,
2013-02-04 22:37:00,27.7,16.0,30.02,SW,222,3.0,3.0,61,0.00,,,0.00,meteohub,2013-02-05 03:37:00,
2013-02-04 22:42:00,27.9,16.2,30.02,South,169,2.0,4.0,61,0.00,,,0.00,meteohub,2013-02-05 03:42:00,
2013-02-04 22:47:00,27.9,16.2,30.02,SSW,211,1.0,4.0,61,0.00,,,0.00,meteohub,2013-02-05 03:47:00,
2013-02-04 22:52:00,27.9,16.2,30.02,SW,235,2.0,4.0,61,0.00,,,0.00,meteohub,2013-02-05 03:52:00,
2013-02-04 22:57:00,27.9,16.2,30.02,South,169,0.0,4.0,61,0.00,,,0.00,meteohub,2013-02-05 03:57:00,
2013-02-04 23:02:00,28.0,16.3,30.02,WSW,243,1.0,4.0,61,0.00,,,0.00,meteohub,2013-02-05 04:02:00,
2013-02-04 23:07:00,28.0,16.3,30.02,SSW,202,1.0,4.0,61,0.00,,,0.00,meteohub,2013-02-05 04:07:00,
2013-02-04 23:12:00,28.0,16.7,30.02,SSW,194,3.0,4.0,62,0.00,,,0.00,meteohub,2013-02-05 04:12:00,
2013-02-04 23:17:00,28.0,17.8,30.02,SW,233,1.0,4.0,65,0.00,,,0.00,meteohub,2013-02-05 04:17:00,
2013-02-04 23:22:00,28.0,19.2,30.02,SW,228,2.0,4.0,69,0.00,,,0.00,meteohub,2013-02-05 04:22:00,
2013-02-04 23:27:00,27.9,19.9,30.02,West,274,1.0,4.0,72,0.00,,,0.00,meteohub,2013-02-05 04:27:00,
2013-02-04 23:32:00,27.9,21.0,30.02,SW,218,1.0,4.0,75,0.00,,,0.00,meteohub,2013-02-05 04:32:00,
2013-02-04 23:37:00,27.5,21.2,30.02,SW,233,1.0,4.0,77,0.00,,,0.00,meteohub,2013-02-05 04:37:00,
2013-02-04 23:42:00,27.3,21.7,30.02,WSW,242,0.0,4.0,79,0.00,,,0.00,meteohub,2013-02-05 04:42:00,
2013-02-04 23:48:00,27.1,21.7,30.02,WSW,242,2.0,3.0,80,0.00,,,0.00,meteohub,2013-02-05 04:48:00,
2013-02-04 23:53:00,27.1,22.1,30.01,SW,235,1.0,3.0,81,0.00,,,0.00,meteohub,2013-02-05 04:53:00,
2013-02-04 23:58:00,27.0,22.3,30.01,SW,230,0.0,3.0,82,0.00,,,0.00,meteohub,2013-02-05 04:58:00,